Time,TemperatureF,DewpointF,PressureIn,WindDirection,WindDirectionDegrees,WindSpeedMPH,WindSpeedGustMPH,Humidity,HourlyPrecipIn,Conditions,Clouds,dailyrainin,SoftwareType,DateUTC
2013-03-15 00:00:00,17.2,10.9,29.86,NNW,343,5.0,10.0,76,0.00,,,0.00,meteohub,2013-03-15 04:00:00,
2013-03-15 00:01:00,17.2,10.9,29.86,NNW,337,5.0,9.0,76,0.00,,,0.00,meteohub,2013-03-15 04:01:00,
2013-03-15 00:02:00,17.2,10.9,29.86,NNE,17,4.0,9.0,76,0.00,,,0.00,meteohub,2013-03-15 04:02:00,
2013-03-15 00:03:00,17.2,10.8,29.86,WNW,298,4.0,9.0,75,0.00,,,0.00,meteohub,2013-03-15 04:03:00,
2013-03-15 00:05:00,17.2,10.8,29.86,WNW,287,10.0,10.0,75,0.00,,,0.00,meteohub,2013-03-15 04:05:00,
2013-03-15 00:10:00,17.2,10.8,29.86,North,349,7.0,9.0,75,0.00,,,0.00,meteohub,2013-03-15 04:10:00,
2013-03-15 00:15:00,17.2,10.8,29.86,NNW,345,4.0,11.0,75,0.00,,,0.00,meteohub,2013-03-15 04:15:00,
2013-03-15 00:20:00,17.1,10.6,29.86,North,353,4.0,16.0,75,0.00,,,0.00,meteohub,2013-03-15 04:20:00,
2013-03-15 00:25:00,17.2,10.4,29.86,WNW,284,7.0,16.0,74,0.00,,,0.00,meteohub,2013-03-15 04:25:00,
2013-03-15 00:30:00,17.1,10.2,29.87,NNW,344,11.0,14.0,74,0.00,,,0.00,meteohub,2013-03-15 04:30:00,
2013-03-15 00:35:00,17.1,10.2,29.86,NNW,328,4.0,14.0,74,0.00,,,0.00,meteohub,2013-03-15 04:35:00,
2013-03-15 00:40:00,17.1,9.9,29.86,NNW,330,10.0,14.0,73,0.00,,,0.00,meteohub,2013-03-15 04:40:00,
2013-03-15 00:46:00,17.1,9.9,29.87,North,357,9.0,14.0,73,0.00,,,0.00,meteohub,2013-03-15 04:46:00,
2013-03-15 00:51:00,16.9,9.5,29.86,NNW,345,5.0,14.0,72,0.00,,,0.00,meteohub,2013-03-15 04:51:00,
2013-03-15 00:56:00,16.9,9.1,29.86,North,353,6.0,13.0,71,0.00,,,0.00,meteohub,2013-03-15 04:56:00,
2013-03-15 01:01:00,16.5,8.8,29.87,NNE,15,6.0,13.0,71,0.00,,,0.00,meteohub,2013-03-15 05:01:00,
2013-03-15 01:06:00,16.5,8.8,29.87,NNW,347,7.0,17.0,71,0.00,,,0.00,meteohub,2013-03-15 05:06:00,
2013-03-15 01:11:00,16.3,8.2,29.87,North,1,10.0,17.0,70,0.00,,,0.00,meteohub,2013-03-15 05:11:00,
2013-03-15 01:16:00,16.3,8.2,29.87,NNW,341,7.0,19.0,70,0.00,,,0.00,meteohub,2013-03-15 05:16:00,
2013-03-15 01:21:00,16.2,8.4,29.87,NNW,334,8.0,19.0,71,0.00,,,0.00,meteohub,2013-03-15 05:21:00,
2013-03-15 01:26:00,16.2,7.7,29.88,NNW,347,19.0,19.0,69,0.00,,,0.00,meteohub,2013-03-15 05:26:00,
2013-03-15 01:31:00,16.2,7.5,29.88,NW,323,8.0,20.0,68,0.00,,,0.00,meteohub,2013-03-15 05:31:00,
2013-03-15 01:36:00,16.2,7.2,29.88,WNW,301,8.0,20.0,67,0.00,,,0.00,meteohub,2013-03-15 05:36:00,
2013-03-15 01:42:00,16.2,7.2,29.88,NNW,347,7.0,20.0,67,0.00,,,0.00,meteohub,2013-03-15 05:42:00,
2013-03-15 01:47:00,16.2,7.2,29.88,NNW,339,14.0,17.0,67,0.00,,,0.00,meteohub,2013-03-15 05:47:00,
2013-03-15 01:52:00,16.2,6.8,29.88,NNW,333,7.0,14.0,66,0.00,,,0.00,meteohub,2013-03-15 05:52:00,
2013-03-15 01:57:00,16.0,6.6,29.88,North,353,8.0,14.0,66,0.00,,,0.00,meteohub,2013-03-15 05:57:00,
2013-03-15 02:02:00,16.0,6.6,29.88,NNE,20,9.0,14.0,66,0.00,,,0.00,meteohub,2013-03-15 06:02:00,
2013-03-15 02:07:00,16.0,7.0,29.88,NNW,347,6.0,14.0,67,0.00,,,0.00,meteohub,2013-03-15 06:07:00,
2013-03-15 02:12:00,15.8,6.4,29.88,NW,316,6.0,14.0,66,0.00,,,0.00,meteohub,2013-03-15 06:12:00,
2013-03-15 02:17:00,15.8,6.1,29.88,North,3,9.0,12.0,65,0.00,,,0.00,meteohub,2013-03-15 06:17:00,
2013-03-15 02:22:00,16.0,6.3,29.88,NW,307,8.0,15.0,65,0.00,,,0.00,meteohub,2013-03-15 06:22:00,
2013-03-15 02:27:00,15.8,5.7,29.88,NNW,332,5.0,15.0,64,0.00,,,0.00,meteohub,2013-03-15 06:27:00,
2013-03-15 02:32:00,15.6,5.9,29.88,NNW,338,5.0,14.0,65,0.00,,,0.00,meteohub,2013-03-15 06:32:00,
2013-03-15 02:37:00,15.4,5.7,29.88,NNW,345,7.0,10.0,65,0.00,,,0.00,meteohub,2013-03-15 06:37:00,
2013-03-15 02:42:00,15.4,6.1,29.88,NNW,341,6.0,14.0,66,0.00,,,0.00,meteohub,2013-03-15 06:42:00,
2013-03-15 02:47:00,15.3,5.9,29.88,NNW,342,7.0,14.0,66,0.00,,,0.00,meteohub,2013-03-15 06:47:00,
2013-03-15 02:52:00,15.3,6.3,29.88,North,4,5.0,14.0,67,0.00,,,0.00,meteohub,2013-03-15 06:52:00,
2013-03-15 02:58:00,15.1,6.1,29.88,North,355,7.0,11.0,67,0.00,,,0.00,meteohub,2013-03-15 06:58:00,
2013-03-15 03:03:00,15.1,6.1,29.88,NNW,337,4.0,11.0,67,0.00,,,0.00,meteohub,2013-03-15 07:03:00,
2013-03-15 03:08:00,15.1,6.4,29.88,NNW,334,5.0,12.0,68,0.00,,,0.00,meteohub,2013-03-15 07:08:00,
2013-03-15 03:13:00,14.9,6.3,29.88,NW,307,5.0,12.0,68,0.00,,,0.00,meteohub,2013-03-15 07:13:00,
2013-03-15 03:18:00,14.9,5.9,29.88,NNW,337,7.0,11.0,67,0.00,,,0.00,meteohub,2013-03-15 07:18:00,
2013-03-15 03:23:00,14.7,6.1,29.87,NW,305,5.0,11.0,68,0.00,,,0.00,meteohub,2013-03-15 07:23:00,
2013-03-15 03:29:00,14.7,6.1,29.87,North,353,5.0,11.0,68,0.00,,,0.00,meteohub,2013-03-15 07:29:00,
2013-03-15 03:34:00,14.7,6.1,29.87,NNW,333,8.0,11.0,68,0.00,,,0.00,meteohub,2013-03-15 07:34:00,
2013-03-15 03:39:00,14.5,5.9,29.87,NW,310,4.0,12.0,68,0.00,,,0.00,meteohub,2013-03-15 07:39:00,
2013-03-15 03:44:00,14.5,6.3,29.87,NNW,331,8.0,12.0,69,0.00,,,0.00,meteohub,2013-03-15 07:44:00,
2013-03-15 03:49:00,14.7,6.4,29.87,NNW,334,4.0,12.0,69,0.00,,,0.00,meteohub,2013-03-15 07:49:00,
2013-03-15 03:54:00,14.7,6.4,29.86,NNW,338,5.0,13.0,69,0.00,,,0.00,meteohub,2013-03-15 07:54:00,
2013-03-15 03:59:00,14.9,6.6,29.87,NNW,336,8.0,13.0,69,0.00,,,0.00,meteohub,2013-03-15 07:59:00,
2013-03-15 04:04:00,15.1,6.4,29.87,NNW,345,7.0,13.0,68,0.00,,,0.00,meteohub,2013-03-15 08:04:00,
2013-03-15 04:09:00,15.1,6.4,29.87,North,6,10.0,13.0,68,0.00,,,0.00,meteohub,2013-03-15 08:09:00,
2013-03-15 04:15:00,15.1,6.8,29.87,NW,310,6.0,13.0,69,0.00,,,0.00,meteohub,2013-03-15 08:15:00,
2013-03-15 04:20:00,14.9,7.0,29.87,NNW,337,4.0,12.0,70,0.00,,,0.00,meteohub,2013-03-15 08:20:00,
2013-03-15 04:25:00,14.7,6.8,29.87,NW,325,5.0,12.0,70,0.00,,,0.00,meteohub,2013-03-15 08:25:00,
2013-03-15 04:30:00,14.7,6.8,29.87,NW,307,5.0,10.0,70,0.00,,,0.00,meteohub,2013-03-15 08:30:00,
2013-03-15 04:35:00,14.7,7.0,29.87,WNW,293,7.0,10.0,71,0.00,,,0.00,meteohub,2013-03-15 08:35:00,
2013-03-15 04:40:00,14.7,7.0,29.87,NW,314,5.0,11.0,71,0.00,,,0.00,meteohub,2013-03-15 08:40:00,
2013-03-15 04:45:00,14.5,6.8,29.87,North,1,5.0,11.0,71,0.00,,,0.00,meteohub,2013-03-15 08:45:00,
2013-03-15 04:50:00,14.5,7.2,29.88,NW,310,5.0,11.0,72,0.00,,,0.00,meteohub,2013-03-15 08:50:00,
2013-03-15 04:56:00,14.7,7.3,29.88,NNW,337,4.0,7.0,72,0.00,,,0.00,meteohub,2013-03-15 08:56:00,
2013-03-15 05:01:00,15.1,7.7,29.87,NW,315,5.0,7.0,72,0.00,,,0.00,meteohub,2013-03-15 09:01:00,
2013-03-15 05:06:00,15.1,7.7,29.88,NNW,332,2.0,10.0,72,0.00,,,0.00,meteohub,2013-03-15 09:06:00,
2013-03-15 05:11:00,15.1,7.7,29.88,NNW,337,3.0,10.0,72,0.00,,,0.00,meteohub,2013-03-15 09:11:00,
2013-03-15 05:16:00,14.9,7.2,29.87,NNW,329,2.0,10.0,71,0.00,,,0.00,meteohub,2013-03-15 09:16:00,
2013-03-15 05:21:00,14.7,7.3,29.87,NNW,330,2.0,7.0,72,0.00,,,0.00,meteohub,2013-03-15 09:21:00,
2013-03-15 05:26:00,14.7,7.7,29.87,NNW,338,3.0,7.0,73,0.00,,,0.00,meteohub,2013-03-15 09:26:00,
2013-03-15 05:31:00,14.5,7.7,29.87,North,357,3.0,7.0,74,0.00,,,0.00,meteohub,2013-03-15 09:31:00,
2013-03-15 05:36:00,14.7,7.7,29.87,NNW,334,1.0,6.0,73,0.00,,,0.00,meteohub,2013-03-15 09:36:00,
2013-03-15 05:42:00,14.7,7.7,29.87,NNW,334,3.0,6.0,73,0.00,,,0.00,meteohub,2013-03-15 09:42:00,
2013-03-15 05:47:00,14.7,7.9,29.87,NW,326,0.0,5.0,74,0.00,,,0.00,meteohub,2013-03-15 09:47:00,
2013-03-15 05:52:00,14.5,7.7,29.87,NNW,343,2.0,6.0,74,0.00,,,0.00,meteohub,2013-03-15 09:52:00,
2013-03-15 05:57:00,14.5,8.1,29.87,North,354,1.0,6.0,75,0.00,,,0.00,meteohub,2013-03-15 09:57:00,
2013-03-15 06:02:00,14.4,7.5,29.88,North,352,2.0,7.0,74,0.00,,,0.00,meteohub,2013-03-15 10:02:00,
2013-03-15 06:07:00,14.2,7.3,29.88,NNW,347,4.0,7.0,74,0.00,,,0.00,meteohub,2013-03-15 10:07:00,
2013-03-15 06:12:00,14.4,7.9,29.87,North,8,4.0,7.0,75,0.00,,,0.00,meteohub,2013-03-15 10:12:00,
2013-03-15 06:17:00,14.5,8.1,29.87,South,182,2.0,8.0,75,0.00,,,0.00,meteohub,2013-03-15 10:17:00,
2013-03-15 06:22:00,14.5,7.7,29.87,North,353,4.0,8.0,74,0.00,,,0.00,meteohub,2013-03-15 10:22:00,
2013-03-15 06:27:00,14.5,7.7,29.87,NNW,336,5.0,9.0,74,0.00,,,0.00,meteohub,2013-03-15 10:27:00,
2013-03-15 06:32:00,14.4,7.9,29.87,NNW,340,2.0,9.0,75,0.00,,,0.00,meteohub,2013-03-15 10:32:00,
2013-03-15 06:37:00,14.4,7.5,29.87,North,349,1.0,9.0,74,0.00,,,0.00,meteohub,2013-03-15 10:37:00,
2013-03-15 06:43:00,14.4,7.9,29.87,NNW,343,2.0,7.0,75,0.00,,,0.00,meteohub,2013-03-15 10:43:00,
2013-03-15 06:48:00,14.2,7.7,29.88,NNE,32,0.0,7.0,75,0.00,,,0.00,meteohub,2013-03-15 10:48:00,
2013-03-15 06:53:00,14.2,7.7,29.88,NNW,341,3.0,7.0,75,0.00,,,0.00,meteohub,2013-03-15 10:53:00,
2013-03-15 06:58:00,13.8,7.3,29.87,NNW,344,2.0,7.0,75,0.00,,,0.00,meteohub,2013-03-15 10:58:00,
2013-03-15 07:03:00,14.0,7.5,29.87,NW,324,4.0,6.0,75,0.00,,,0.00,meteohub,2013-03-15 11:03:00,
2013-03-15 07:08:00,13.8,7.3,29.86,North,357,4.0,7.0,75,0.00,,,0.00,meteohub,2013-03-15 11:08:00,
2013-03-15 07:14:00,13.8,7.3,29.86,North,6,3.0,7.0,75,0.00,,,0.00,meteohub,2013-03-15 11:14:00,
2013-03-15 07:19:00,14.0,7.2,29.86,NNE,18,2.0,8.0,74,0.00,,,0.00,meteohub,2013-03-15 11:19:00,
2013-03-15 07:24:00,14.4,7.5,29.86,NNW,340,3.0,8.0,74,0.00,,,0.00,meteohub,2013-03-15 11:24:00,
2013-03-15 07:29:00,14.4,7.5,29.86,North,357,3.0,8.0,74,0.00,,,0.00,meteohub,2013-03-15 11:29:00,
2013-03-15 07:34:00,14.5,7.5,29.86,WNW,298,5.0,9.0,73,0.00,,,0.00,meteohub,2013-03-15 11:34:00,
2013-03-15 07:39:00,14.5,7.5,29.86,North,351,3.0,9.0,73,0.00,,,0.00,meteohub,2013-03-15 11:39:00,
2013-03-15 07:44:00,14.5,7.5,29.86,NNW,345,4.0,9.0,73,0.00,,,0.00,meteohub,2013-03-15 11:44:00,
2013-03-15 07:49:00,14.5,7.5,29.86,WNW,297,6.0,9.0,73,0.00,,,0.00,meteohub,2013-03-15 11:49:00,
2013-03-15 07:54:00,14.5,7.5,29.86,NNW,341,7.0,10.0,73,0.00,,,0.00,meteohub,2013-03-15 11:54:00,
2013-03-15 07:59:00,14.5,7.5,29.86,NW,326,3.0,13.0,73,0.00,,,0.00,meteohub,2013-03-15 11:59:00,
2013-03-15 08:05:00,14.7,7.3,29.86,NNW,329,5.0,13.0,72,0.00,,,0.00,meteohub,2013-03-15 12:05:00,
2013-03-15 08:10:00,15.1,7.7,29.86,NW,308,4.0,9.0,72,0.00,,,0.00,meteohub,2013-03-15 12:10:00,
2013-03-15 08:15:00,15.3,7.9,29.86,NW,326,2.0,8.0,72,0.00,,,0.00,meteohub,2013-03-15 12:15:00,
2013-03-15 08:20:00,15.3,7.5,29.86,North,359,2.0,8.0,71,0.00,,,0.00,meteohub,2013-03-15 12:20:00,
2013-03-15 08:25:00,15.4,7.7,29.86,North,352,3.0,7.0,71,0.00,,,0.00,meteohub,2013-03-15 12:25:00,
2013-03-15 08:30:00,15.6,7.9,29.86,NNW,343,5.0,7.0,71,0.00,,,0.00,meteohub,2013-03-15 12:30:00,
2013-03-15 08:36:00,15.8,8.1,29.86,NW,309,0.0,9.0,71,0.00,,,0.00,meteohub,2013-03-15 12:36:00,
2013-03-15 08:41:00,16.0,7.9,29.86,North,349,2.0,9.0,70,0.00,,,0.00,meteohub,2013-03-15 12:41:00,
2013-03-15 08:46:00,16.2,8.1,29.85,North,5,2.0,9.0,70,0.00,,,0.00,meteohub,2013-03-15 12:46:00,
2013-03-15 08:51:00,16.5,8.4,29.85,NNW,346,3.0,8.0,70,0.00,,,0.00,meteohub,2013-03-15 12:51:00,
2013-03-15 08:56:00,16.7,8.2,29.85,NW,308,2.0,9.0,69,0.00,,,0.00,meteohub,2013-03-15 12:56:00,
2013-03-15 09:01:00,16.9,8.4,29.85,WNW,293,7.0,9.0,69,0.00,,,0.00,meteohub,2013-03-15 13:01:00,
2013-03-15 09:06:00,17.2,8.4,29.85,WNW,297,7.0,9.0,68,0.00,,,0.00,meteohub,2013-03-15 13:06:00,
2013-03-15 09:11:00,17.4,8.4,29.84,WNW,294,5.0,10.0,67,0.00,,,0.00,meteohub,2013-03-15 13:11:00,
2013-03-15 09:16:00,17.4,8.4,29.84,NE,41,11.0,11.0,67,0.00,,,0.00,meteohub,2013-03-15 13:16:00,
2013-03-15 09:21:00,17.6,8.8,29.84,NNE,27,2.0,14.0,68,0.00,,,0.00,meteohub,2013-03-15 13:21:00,
2013-03-15 09:26:00,18.0,8.6,29.84,NNW,333,2.0,14.0,66,0.00,,,0.00,meteohub,2013-03-15 13:26:00,
2013-03-15 09:31:00,18.3,9.0,29.84,North,353,3.0,14.0,66,0.00,,,0.00,meteohub,2013-03-15 13:31:00,
2013-03-15 09:36:00,18.7,9.1,29.84,NW,322,7.0,7.0,66,0.00,,,0.00,meteohub,2013-03-15 13:36:00,
2013-03-15 09:41:00,18.9,9.0,29.84,North,351,3.0,15.0,65,0.00,,,0.00,meteohub,2013-03-15 13:41:00,
2013-03-15 09:46:00,19.2,9.3,29.84,NNW,343,3.0,15.0,65,0.00,,,0.00,meteohub,2013-03-15 13:46:00,
2013-03-15 09:52:00,19.4,9.9,29.84,NNW,334,0.0,15.0,66,0.00,,,0.00,meteohub,2013-03-15 13:52:00,
2013-03-15 09:57:00,19.9,10.4,29.83,NW,326,1.0,7.0,66,0.00,,,0.00,meteohub,2013-03-15 13:57:00,
2013-03-15 10:02:00,20.5,10.2,29.83,East,90,1.0,5.0,64,0.00,,,0.00,meteohub,2013-03-15 14:02:00,
2013-03-15 10:07:00,20.8,10.6,29.83,NNW,328,0.0,4.0,64,0.00,,,0.00,meteohub,2013-03-15 14:07:00,
2013-03-15 10:12:00,21.4,10.0,29.83,NNW,338,0.0,4.0,61,0.00,,,0.00,meteohub,2013-03-15 14:12:00,
2013-03-15 10:17:00,21.7,10.4,29.83,NNW,338,1.0,5.0,61,0.00,,,0.00,meteohub,2013-03-15 14:17:00,
2013-03-15 10:22:00,22.1,11.1,29.82,SE,126,0.0,5.0,62,0.00,,,0.00,meteohub,2013-03-15 14:22:00,
2013-03-15 10:27:00,22.6,10.0,29.82,NW,313,3.0,6.0,58,0.00,,,0.00,meteohub,2013-03-15 14:27:00,
2013-03-15 10:32:00,22.5,9.5,29.81,North,349,4.0,8.0,57,0.00,,,0.00,meteohub,2013-03-15 14:32:00,
2013-03-15 10:38:00,22.3,9.3,29.81,NW,322,5.0,14.0,57,0.00,,,0.00,meteohub,2013-03-15 14:38:00,
2013-03-15 10:43:00,22.5,10.2,29.81,NE,54,0.0,14.0,59,0.00,,,0.00,meteohub,2013-03-15 14:43:00,
2013-03-15 10:48:00,23.2,10.6,29.80,ESE,112,0.0,14.0,58,0.00,,,0.00,meteohub,2013-03-15 14:48:00,
2013-03-15 10:53:00,23.9,11.3,29.80,NW,309,4.0,11.0,58,0.00,,,0.00,meteohub,2013-03-15 14:53:00,
2013-03-15 10:58:00,24.3,10.4,29.80,North,354,2.0,5.0,55,0.00,,,0.00,meteohub,2013-03-15 14:58:00,
2013-03-15 11:03:00,23.9,9.3,29.80,NNW,341,9.0,9.0,53,0.00,,,0.00,meteohub,2013-03-15 15:03:00,
2013-03-15 11:08:00,24.1,9.5,29.80,NNW,338,3.0,13.0,53,0.00,,,0.00,meteohub,2013-03-15 15:08:00,
2013-03-15 11:13:00,24.3,9.1,29.80,NNW,332,6.0,13.0,52,0.00,,,0.00,meteohub,2013-03-15 15:13:00,
2013-03-15 11:18:00,24.3,9.1,29.80,NNW,348,4.0,11.0,52,0.00,,,0.00,meteohub,2013-03-15 15:18:00,
2013-03-15 11:23:00,24.4,9.0,29.79,North,350,1.0,14.0,51,0.00,,,0.00,meteohub,2013-03-15 15:23:00,
2013-03-15 11:28:00,24.4,9.3,29.79,North,349,0.0,14.0,52,0.00,,,0.00,meteohub,2013-03-15 15:28:00,
2013-03-15 11:34:00,24.8,10.0,29.78,NNW,347,3.0,12.0,53,0.00,,,0.00,meteohub,2013-03-15 15:34:00,
2013-03-15 11:39:00,25.2,10.0,29.78,NNW,347,2.0,12.0,52,0.00,,,0.00,meteohub,2013-03-15 15:39:00,
2013-03-15 11:44:00,25.5,9.9,29.78,NW,322,1.0,9.0,51,0.00,,,0.00,meteohub,2013-03-15 15:44:00,
2013-03-15 11:49:00,26.1,9.1,29.78,NNW,340,2.0,9.0,48,0.00,,,0.00,meteohub,2013-03-15 15:49:00,
2013-03-15 11:54:00,26.1,8.1,29.77,NW,318,6.0,7.0,46,0.00,,,0.00,meteohub,2013-03-15 15:54:00,
2013-03-15 11:59:00,26.2,9.1,29.77,NNW,340,5.0,8.0,48,0.00,,,0.00,meteohub,2013-03-15 15:59:00,
2013-03-15 12:04:00,26.6,10.0,29.76,NNW,347,3.0,9.0,49,0.00,,,0.00,meteohub,2013-03-15 16:04:00,
2013-03-15 12:09:00,26.8,9.7,29.76,NW,318,3.0,9.0,48,0.00,,,0.00,meteohub,2013-03-15 16:09:00,
2013-03-15 12:14:00,27.3,10.8,29.75,NNW,338,2.0,14.0,49,0.00,,,0.00,meteohub,2013-03-15 16:14:00,
2013-03-15 12:20:00,28.2,12.9,29.75,NW,310,1.0,14.0,52,0.00,,,0.00,meteohub,2013-03-15 16:20:00,
2013-03-15 12:25:00,28.9,12.2,29.75,NNW,345,0.0,14.0,49,0.00,,,0.00,meteohub,2013-03-15 16:25:00,
2013-03-15 12:30:00,29.7,11.8,29.74,NW,314,3.0,3.0,47,0.00,,,0.00,meteohub,2013-03-15 16:30:00,
2013-03-15 12:35:00,29.5,11.7,29.74,NW,322,4.0,5.0,47,0.00,,,0.00,meteohub,2013-03-15 16:35:00,
2013-03-15 12:40:00,29.5,9.7,29.73,NNW,343,3.0,6.0,43,0.00,,,0.00,meteohub,2013-03-15 16:40:00,
2013-03-15 12:45:00,29.7,10.4,29.73,NNW,328,1.0,6.0,44,0.00,,,0.00,meteohub,2013-03-15 16:45:00,
2013-03-15 12:50:00,30.0,11.3,29.73,NNW,347,2.0,6.0,45,0.00,,,0.00,meteohub,2013-03-15 16:50:00,
2013-03-15 12:55:00,29.8,11.1,29.73,NNW,333,6.0,8.0,45,0.00,,,0.00,meteohub,2013-03-15 16:55:00,
2013-03-15 13:00:00,29.8,10.0,29.72,NW,315,3.0,8.0,43,0.00,,,0.00,meteohub,2013-03-15 17:00:00,
2013-03-15 13:05:00,30.2,11.8,29.71,NW,326,3.0,8.0,46,0.00,,,0.00,meteohub,2013-03-15 17:05:00,
2013-03-15 13:10:00,30.4,13.1,29.71,NNW,337,2.0,7.0,48,0.00,,,0.00,meteohub,2013-03-15 17:10:00,
2013-03-15 13:16:00,30.6,12.2,29.71,NNW,344,4.0,10.0,46,0.00,,,0.00,meteohub,2013-03-15 17:16:00,
2013-03-15 13:21:00,30.7,12.4,29.70,NNW,337,1.0,10.0,46,0.00,,,0.00,meteohub,2013-03-15 17:21:00,
2013-03-15 13:26:00,31.3,12.4,29.70,NW,322,0.0,10.0,45,0.00,,,0.00,meteohub,2013-03-15 17:26:00,
2013-03-15 13:31:00,31.5,13.1,29.70,ESE,112,2.0,6.0,46,0.00,,,0.00,meteohub,2013-03-15 17:31:00,
2013-03-15 13:36:00,31.5,13.1,29.69,NNW,348,4.0,7.0,46,0.00,,,0.00,meteohub,2013-03-15 17:36:00,
2013-03-15 13:41:00,31.6,13.6,29.69,NNE,14,0.0,7.0,47,0.00,,,0.00,meteohub,2013-03-15 17:41:00,
2013-03-15 13:46:00,32.2,14.2,29.69,ENE,68,1.0,7.0,47,0.00,,,0.00,meteohub,2013-03-15 17:46:00,
2013-03-15 13:52:00,32.0,15.1,29.69,NNW,339,1.0,9.0,49,0.00,,,0.00,meteohub,2013-03-15 17:52:00,
2013-03-15 13:57:00,31.8,15.3,29.68,North,349,2.0,9.0,50,0.00,,,0.00,meteohub,2013-03-15 17:57:00,
2013-03-15 14:02:00,31.8,15.3,29.68,SSE,151,2.0,10.0,50,0.00,,,0.00,meteohub,2013-03-15 18:02:00,
2013-03-15 14:07:00,32.2,16.2,29.68,NW,307,7.0,10.0,51,0.00,,,0.00,meteohub,2013-03-15 18:07:00,
2013-03-15 14:12:00,32.4,16.3,29.68,West,261,1.0,11.0,51,0.00,,,0.00,meteohub,2013-03-15 18:12:00,
2013-03-15 14:17:00,32.4,15.3,29.67,NNE,17,1.0,11.0,49,0.00,,,0.00,meteohub,2013-03-15 18:17:00,
2013-03-15 14:22:00,32.2,16.2,29.67,NNW,345,4.0,11.0,51,0.00,,,0.00,meteohub,2013-03-15 18:22:00,
2013-03-15 14:27:00,32.2,17.4,29.67,North,5,2.0,7.0,54,0.00,,,0.00,meteohub,2013-03-15 18:27:00,
2013-03-15 14:32:00,32.4,17.1,29.67,NE,37,2.0,7.0,53,0.00,,,0.00,meteohub,2013-03-15 18:32:00,
2013-03-15 14:37:00,32.4,18.0,29.66,North,351,2.0,8.0,55,0.00,,,0.00,meteohub,2013-03-15 18:37:00,
2013-03-15 14:42:00,32.0,17.2,29.66,North,355,2.0,10.0,54,0.00,,,0.00,meteohub,2013-03-15 18:42:00,
2013-03-15 14:47:00,32.0,16.9,29.65,ESE,119,2.0,10.0,53,0.00,,,0.00,meteohub,2013-03-15 18:47:00,
2013-03-15 14:52:00,32.2,17.8,29.65,NNE,12,8.0,10.0,55,0.00,,,0.00,meteohub,2013-03-15 18:52:00,
2013-03-15 14:57:00,32.4,17.1,29.65,NW,311,0.0,10.0,53,0.00,,,0.00,meteohub,2013-03-15 18:57:00,
2013-03-15 15:02:00,33.1,18.7,29.65,NNW,329,4.0,10.0,55,0.00,,,0.00,meteohub,2013-03-15 19:02:00,
2013-03-15 15:07:00,33.8,19.4,29.65,NW,325,4.0,10.0,55,0.00,,,0.00,meteohub,2013-03-15 19:07:00,
2013-03-15 15:12:00,33.8,18.9,29.65,WNW,289,8.0,11.0,54,0.00,,,0.00,meteohub,2013-03-15 19:12:00,
2013-03-15 15:17:00,33.4,19.0,29.65,West,280,3.0,11.0,55,0.00,,,0.00,meteohub,2013-03-15 19:17:00,
2013-03-15 15:22:00,33.1,19.9,29.65,NNW,335,5.0,11.0,58,0.00,,,0.00,meteohub,2013-03-15 19:22:00,
2013-03-15 15:27:00,32.9,19.8,29.65,North,354,6.0,12.0,58,0.00,,,0.00,meteohub,2013-03-15 19:27:00,
2013-03-15 15:32:00,32.9,20.5,29.64,NNW,346,0.0,12.0,60,0.00,,,0.00,meteohub,2013-03-15 19:32:00,
2013-03-15 15:37:00,33.1,20.7,29.65,SW,214,3.0,12.0,60,0.00,,,0.00,meteohub,2013-03-15 19:37:00,
2013-03-15 15:42:00,32.9,20.8,29.65,NNE,27,1.0,11.0,61,0.00,,,0.00,meteohub,2013-03-15 19:42:00,
2013-03-15 15:47:00,32.9,21.4,29.64,NNW,347,1.0,11.0,62,0.00,,,0.00,meteohub,2013-03-15 19:47:00,
2013-03-15 15:52:00,32.9,21.7,29.64,North,350,2.0,12.0,63,0.00,,,0.00,meteohub,2013-03-15 19:52:00,
2013-03-15 15:57:00,32.7,21.6,29.64,NNW,345,7.0,15.0,63,0.00,,,0.00,meteohub,2013-03-15 19:57:00,
2013-03-15 16:03:00,32.9,22.1,29.64,NNW,330,3.0,15.0,64,0.00,,,0.00,meteohub,2013-03-15 20:03:00,
2013-03-15 16:08:00,32.9,22.5,29.63,WNW,293,2.0,15.0,65,0.00,,,0.00,meteohub,2013-03-15 20:08:00,
2013-03-15 16:13:00,32.9,22.5,29.63,NNW,332,4.0,15.0,65,0.00,,,0.00,meteohub,2013-03-15 20:13:00,
2013-03-15 16:18:00,32.5,22.5,29.63,NW,310,5.0,9.0,66,0.00,,,0.00,meteohub,2013-03-15 20:18:00,
2013-03-15 16:23:00,32.5,22.5,29.63,North,10,3.0,12.0,66,0.00,,,0.00,meteohub,2013-03-15 20:23:00,
2013-03-15 16:28:00,32.5,22.5,29.63,NW,316,2.0,12.0,66,0.00,,,0.00,meteohub,2013-03-15 20:28:00,
2013-03-15 16:33:00,32.5,22.8,29.62,NNW,340,5.0,12.0,67,0.00,,,0.00,meteohub,2013-03-15 20:33:00,
2013-03-15 16:38:00,32.5,22.8,29.62,WNW,296,5.0,11.0,67,0.00,,,0.00,meteohub,2013-03-15 20:38:00,
2013-03-15 16:43:00,32.5,23.2,29.62,NW,317,6.0,11.0,68,0.00,,,0.00,meteohub,2013-03-15 20:43:00,
2013-03-15 16:48:00,32.4,23.0,29.62,SW,223,2.0,7.0,68,0.00,,,0.00,meteohub,2013-03-15 20:48:00,
2013-03-15 16:53:00,32.5,23.5,29.62,North,5,0.0,9.0,69,0.00,,,0.00,meteohub,2013-03-15 20:53:00,
2013-03-15 16:59:00,32.5,23.9,29.62,NNE,21,1.0,9.0,70,0.00,,,0.00,meteohub,2013-03-15 20:59:00,
2013-03-15 17:04:00,32.5,23.9,29.62,SSW,210,1.0,9.0,70,0.00,,,0.00,meteohub,2013-03-15 21:04:00,
2013-03-15 17:09:00,32.5,23.9,29.62,NW,316,1.0,8.0,70,0.00,,,0.00,meteohub,2013-03-15 21:09:00,
2013-03-15 17:14:00,32.4,23.7,29.62,West,273,4.0,8.0,70,0.00,,,0.00,meteohub,2013-03-15 21:14:00,
2013-03-15 17:19:00,32.5,23.9,29.62,NNW,344,0.0,8.0,70,0.00,,,0.00,meteohub,2013-03-15 21:19:00,
2013-03-15 17:24:00,32.5,24.3,29.62,NNW,347,1.0,8.0,71,0.00,,,0.00,meteohub,2013-03-15 21:24:00,
2013-03-15 17:29:00,32.5,24.4,29.61,East,97,1.0,8.0,72,0.00,,,0.00,meteohub,2013-03-15 21:29:00,
2013-03-15 17:34:00,32.5,24.4,29.61,NNW,341,4.0,8.0,72,0.00,,,0.00,meteohub,2013-03-15 21:34:00,
2013-03-15 17:39:00,32.4,24.3,29.62,ESE,121,0.0,7.0,72,0.00,,,0.00,meteohub,2013-03-15 21:39:00,
2013-03-15 17:45:00,32.4,24.3,29.61,North,353,1.0,7.0,72,0.00,,,0.00,meteohub,2013-03-15 21:45:00,
2013-03-15 17:50:00,32.5,24.8,29.61,SE,142,3.0,7.0,73,0.00,,,0.00,meteohub,2013-03-15 21:50:00,
2013-03-15 17:55:00,32.5,24.8,29.61,SE,139,0.0,7.0,73,0.00,,,0.00,meteohub,2013-03-15 21:55:00,
2013-03-15 18:00:00,32.5,24.4,29.60,SW,215,0.0,7.0,72,0.00,,,0.00,meteohub,2013-03-15 22:00:00,
2013-03-15 18:05:00,32.5,24.8,29.61,NNW,334,4.0,4.0,73,0.00,,,0.00,meteohub,2013-03-15 22:05:00,
2013-03-15 18:10:00,32.5,24.4,29.60,WNW,283,0.0,4.0,72,0.00,,,0.00,meteohub,2013-03-15 22:10:00,
2013-03-15 18:15:00,32.5,25.2,29.60,East,92,0.0,5.0,74,0.00,,,0.00,meteohub,2013-03-15 22:15:00,
2013-03-15 18:20:00,32.5,25.2,29.61,NW,320,6.0,6.0,74,0.00,,,0.00,meteohub,2013-03-15 22:20:00,
2013-03-15 18:25:00,32.5,25.9,29.60,SSE,156,0.0,11.0,76,0.00,,,0.00,meteohub,2013-03-15 22:25:00,
2013-03-15 18:31:00,32.5,26.1,29.60,NNE,22,0.0,11.0,77,0.00,,,0.00,meteohub,2013-03-15 22:31:00,
2013-03-15 18:36:00,32.4,26.2,29.60,NW,320,0.0,8.0,78,0.00,,,0.00,meteohub,2013-03-15 22:36:00,
2013-03-15 18:41:00,32.2,26.8,29.61,North,356,0.0,4.0,80,0.00,,,0.00,meteohub,2013-03-15 22:41:00,
2013-03-15 18:46:00,32.0,27.1,29.61,SSW,201,0.0,5.0,82,0.00,,,0.00,meteohub,2013-03-15 22:46:00,
2013-03-15 18:51:00,31.8,27.0,29.60,SSW,201,0.0,5.0,82,0.00,,,0.00,meteohub,2013-03-15 22:51:00,
2013-03-15 18:56:00,31.8,27.0,29.60,North,3,0.0,5.0,82,0.00,,,0.00,meteohub,2013-03-15 22:56:00,
2013-03-15 19:01:00,31.6,27.1,29.60,ESE,117,0.0,2.0,83,0.00,,,0.00,meteohub,2013-03-15 23:01:00,
2013-03-15 19:06:00,31.8,27.0,29.60,SE,126,6.0,6.0,82,0.00,,,0.00,meteohub,2013-03-15 23:06:00,
2013-03-15 19:11:00,31.8,26.4,29.60,NW,320,0.0,6.0,80,0.00,,,0.00,meteohub,2013-03-15 23:11:00,
2013-03-15 19:16:00,32.2,26.4,29.61,NNW,340,0.0,7.0,79,0.00,,,0.00,meteohub,2013-03-15 23:16:00,
2013-03-15 19:22:00,32.2,26.4,29.60,NNW,341,0.0,7.0,79,0.00,,,0.00,meteohub,2013-03-15 23:22:00,
2013-03-15 19:27:00,32.2,26.4,29.60,ESE,114,0.0,4.0,79,0.00,,,0.00,meteohub,2013-03-15 23:27:00,
2013-03-15 19:32:00,32.4,26.6,29.60,ENE,70,0.0,3.0,79,0.00,,,0.00,meteohub,2013-03-15 23:32:00,
2013-03-15 19:37:00,32.4,26.2,29.61,NNW,345,3.0,3.0,78,0.00,,,0.00,meteohub,2013-03-15 23:37:00,
2013-03-15 19:42:00,32.5,26.4,29.61,SE,146,0.0,5.0,78,0.00,,,0.00,meteohub,2013-03-15 23:42:00,
2013-03-15 19:47:00,32.5,26.1,29.61,NW,308,0.0,5.0,77,0.00,,,0.00,meteohub,2013-03-15 23:47:00,
2013-03-15 19:52:00,32.5,26.4,29.62,NNW,346,2.0,3.0,78,0.00,,,0.00,meteohub,2013-03-15 23:52:00,
2013-03-15 19:57:00,32.5,26.8,29.62,NNW,334,2.0,3.0,79,0.00,,,0.00,meteohub,2013-03-15 23:57:00,
2013-03-15 20:02:00,32.4,27.1,29.62,WNW,283,1.0,5.0,81,0.00,,,0.00,meteohub,2013-03-16 00:02:00,
2013-03-15 20:07:00,32.2,27.9,29.62,NNW,346,2.0,9.0,84,0.00,,,0.00,meteohub,2013-03-16 00:07:00,
2013-03-15 20:12:00,31.6,27.9,29.62,NNE,21,1.0,9.0,86,0.00,,,0.00,meteohub,2013-03-16 00:12:00,
2013-03-15 20:18:00,31.5,28.0,29.62,ENE,74,1.0,9.0,87,0.00,,,0.00,meteohub,2013-03-16 00:18:00,
2013-03-15 20:23:00,31.3,28.2,29.61,ESE,116,0.0,6.0,88,0.00,,,0.00,meteohub,2013-03-16 00:23:00,
2013-03-15 20:28:00,31.3,28.4,29.61,ESE,122,1.0,6.0,89,0.00,,,0.00,meteohub,2013-03-16 00:28:00,
2013-03-15 20:33:00,30.9,28.0,29.62,ESE,122,0.0,6.0,89,0.00,,,0.00,meteohub,2013-03-16 00:33:00,
2013-03-15 20:38:00,31.1,27.7,29.62,North,10,0.0,4.0,87,0.00,,,0.00,meteohub,2013-03-16 00:38:00,
2013-03-15 20:44:00,31.3,27.9,29.61,WNW,291,2.0,7.0,87,0.00,,,0.00,meteohub,2013-03-16 00:44:00,
2013-03-15 20:49:00,31.5,27.5,29.62,NW,317,2.0,7.0,85,0.00,,,0.00,meteohub,2013-03-16 00:49:00,
2013-03-15 20:54:00,31.6,27.9,29.62,ESE,111,0.0,11.0,86,0.00,,,0.00,meteohub,2013-03-16 00:54:00,
2013-03-15 20:59:00,31.5,28.0,29.62,SE,133,0.0,11.0,87,0.00,,,0.00,meteohub,2013-03-16 00:59:00,
2013-03-15 21:04:00,31.6,27.7,29.62,WNW,303,3.0,11.0,85,0.00,,,0.00,meteohub,2013-03-16 01:04:00,
2013-03-15 21:09:00,31.6,27.3,29.63,East,91,1.0,5.0,84,0.00,,,0.00,meteohub,2013-03-16 01:09:00,
2013-03-15 21:14:00,31.8,27.3,29.63,NNW,343,3.0,5.0,83,0.00,,,0.00,meteohub,2013-03-16 01:14:00,
2013-03-15 21:20:00,31.8,27.3,29.63,NNW,345,3.0,11.0,83,0.00,,,0.00,meteohub,2013-03-16 01:20:00,
2013-03-15 21:25:00,31.6,27.1,29.64,North,3,4.0,13.0,83,0.00,,,0.00,meteohub,2013-03-16 01:25:00,
2013-03-15 21:30:00,31.6,27.1,29.64,NNW,335,10.0,14.0,83,0.00,,,0.00,meteohub,2013-03-16 01:30:00,
2013-03-15 21:35:00,31.5,27.0,29.65,NNW,333,10.0,14.0,83,0.00,,,0.00,meteohub,2013-03-16 01:35:00,
2013-03-15 21:40:00,31.5,25.3,29.65,West,274,5.0,14.0,78,0.00,,,0.00,meteohub,2013-03-16 01:40:00,
2013-03-15 21:45:00,31.3,24.6,29.65,NNW,347,8.0,16.0,76,0.00,,,0.00,meteohub,2013-03-16 01:45:00,
2013-03-15 21:51:00,30.9,23.9,29.66,NNW,343,9.0,16.0,75,0.00,,,0.00,meteohub,2013-03-16 01:51:00,
2013-03-15 21:56:00,30.9,23.5,29.65,NNW,336,5.0,15.0,74,0.00,,,0.00,meteohub,2013-03-16 01:56:00,
2013-03-15 22:01:00,30.7,22.1,29.65,NNE,16,3.0,14.0,70,0.00,,,0.00,meteohub,2013-03-16 02:01:00,
2013-03-15 22:06:00,30.7,21.4,29.65,NNW,338,4.0,12.0,68,0.00,,,0.00,meteohub,2013-03-16 02:06:00,
2013-03-15 22:11:00,30.7,21.4,29.66,NNW,347,3.0,17.0,68,0.00,,,0.00,meteohub,2013-03-16 02:11:00,
2013-03-15 22:16:00,30.6,20.5,29.67,NNW,339,10.0,17.0,66,0.00,,,0.00,meteohub,2013-03-16 02:16:00,
2013-03-15 22:21:00,30.6,20.5,29.67,NNE,32,4.0,17.0,66,0.00,,,0.00,meteohub,2013-03-16 02:21:00,
2013-03-15 22:27:00,30.4,21.0,29.68,NNE,27,7.0,15.0,68,0.00,,,0.00,meteohub,2013-03-16 02:27:00,
2013-03-15 22:32:00,30.0,21.0,29.68,NNE,27,4.0,15.0,69,0.00,,,0.00,meteohub,2013-03-16 02:32:00,
2013-03-15 22:37:00,29.8,20.8,29.68,SSW,207,2.0,14.0,69,0.00,,,0.00,meteohub,2013-03-16 02:37:00,
2013-03-15 22:42:00,29.8,21.2,29.68,WNW,302,8.0,11.0,70,0.00,,,0.00,meteohub,2013-03-16 02:42:00,
2013-03-15 22:47:00,29.7,21.0,29.69,NNW,338,10.0,11.0,70,0.00,,,0.00,meteohub,2013-03-16 02:47:00,
2013-03-15 22:52:00,29.7,20.7,29.69,WNW,282,8.0,11.0,69,0.00,,,0.00,meteohub,2013-03-16 02:52:00,
2013-03-15 22:57:00,29.7,20.7,29.69,NNW,337,3.0,12.0,69,0.00,,,0.00,meteohub,2013-03-16 02:57:00,
2013-03-15 23:02:00,29.5,21.2,29.69,NW,312,3.0,12.0,71,0.00,,,0.00,meteohub,2013-03-16 03:02:00,
2013-03-15 23:08:00,29.3,21.4,29.70,NNW,330,3.0,16.0,72,0.00,,,0.00,meteohub,2013-03-16 03:08:00,
2013-03-15 23:13:00,29.3,21.0,29.70,NNW,344,3.0,16.0,71,0.00,,,0.00,meteohub,2013-03-16 03:13:00,
2013-03-15 23:18:00,29.1,21.2,29.70,NNW,341,3.0,13.0,72,0.00,,,0.00,meteohub,2013-03-16 03:18:00,
2013-03-15 23:23:00,29.1,21.2,29.70,North,352,5.0,11.0,72,0.00,,,0.00,meteohub,2013-03-16 03:23:00,
2013-03-15 23:28:00,28.9,21.0,29.70,NNW,344,4.0,11.0,72,0.00,,,0.00,meteohub,2013-03-16 03:28:00,
2013-03-15 23:33:00,28.9,21.4,29.71,WNW,297,5.0,10.0,73,0.00,,,0.00,meteohub,2013-03-16 03:33:00,
2013-03-15 23:38:00,28.8,21.2,29.71,NNW,338,2.0,10.0,73,0.00,,,0.00,meteohub,2013-03-16 03:38:00,
2013-03-15 23:44:00,28.8,21.2,29.71,NNW,345,6.0,9.0,73,0.00,,,0.00,meteohub,2013-03-16 03:44:00,
2013-03-15 23:49:00,28.6,21.4,29.71,NNW,334,4.0,9.0,74,0.00,,,0.00,meteohub,2013-03-16 03:49:00,
2013-03-15 23:54:00,28.6,21.4,29.71,NW,314,3.0,9.0,74,0.00,,,0.00,meteohub,2013-03-16 03:54:00,
2013-03-15 23:59:00,28.4,21.6,29.72,NW,315,4.0,9.0,75,0.00,,,0.00,meteohub,2013-03-16 03:59:00,